Tracking 18852 objects as of 24-Nov-2017
HD Live streaming from Space Station
objects crossing your sky now

FENGYUN 1C DEB

Track FENGYUN 1C DEB now!
10-day predictions


NORAD ID: 31325
Int'l Code: 1999-025BQD
Perigee: 832.2 km
Apogee: 955.4 km
Inclination: 99.1 °
Period: 102.7 minutes
Semi major axis: 7264 km
RCS: 0.0037 m2 (small)
Launch date: May 10, 1999
Source: People's Republic of China (PRC)
Launch site: Taiyaun Space Center, China (TSC)

Note: This is SATELLITE DEBRIS
aabbcc
Your satellite tracking list
Your tracking list is empty




NASA's NSSDC Master Catalog

Two Line Element Set (TLE):
1 31325U 99025BQD 17325.40838784  .00000505  00000-0  34882-3 0  9997
2 31325  99.1369  19.9311 0084732 143.9610 216.7308 14.02061513541487
Source of the keplerian elements: AFSPC